TimeEDT,TemperatureF,Dew PointF,Humidity,Sea Level PressureIn,VisibilityMPH,Wind Direction,Wind SpeedMPH,Gust SpeedMPH,PrecipitationIn,Events,Conditions,WindDirDegrees,DateUTC
12:01 AM,42.8,41.0,93,30.23,10.0,South,3.5,-,N/A,,Overcast,170,2012-10-08 04:01:00
12:23 AM,42.8,41.0,93,30.24,10.0,South,4.6,-,N/A,,Overcast,170,2012-10-08 04:23:00
12:44 AM,41.0,39.2,93,30.24,10.0,Calm,Calm,-,N/A,,Scattered Clouds,0,2012-10-08 04:44:00
1:05 AM,42.8,41.0,93,30.24,10.0,Calm,Calm,-,N/A,,Mostly Cloudy,0,2012-10-08 05:05:00
1:27 AM,41.0,41.0,100,30.24,10.0,Calm,Calm,-,N/A,,Mostly Cloudy,0,2012-10-08 05:27:00
1:48 AM,41.0,41.0,100,30.24,10.0,Calm,Calm,-,N/A,,Scattered Clouds,0,2012-10-08 05:48:00
2:09 AM,41.0,41.0,100,30.24,10.0,NW,3.5,-,N/A,,Scattered Clouds,320,2012-10-08 06:09:00
2:31 AM,39.2,39.2,100,30.24,10.0,Calm,Calm,-,N/A,,Clear,0,2012-10-08 06:31:00
2:52 AM,37.4,37.4,100,30.24,7.0,Calm,Calm,-,N/A,,Clear,0,2012-10-08 06:52:00
3:13 AM,37.4,37.4,100,30.24,4.0,Calm,Calm,-,N/A,,Clear,0,2012-10-08 07:13:00
3:35 AM,37.4,37.4,100,30.24,3.0,Calm,Calm,-,N/A,,Clear,0,2012-10-08 07:35:00
3:56 AM,35.6,35.6,100,30.24,5.0,Calm,Calm,-,N/A,,Scattered Clouds,0,2012-10-08 07:56:00
4:17 AM,37.4,37.4,100,30.26,7.0,Calm,Calm,-,N/A,,Clear,0,2012-10-08 08:17:00
4:39 AM,35.6,35.6,100,30.27,0.2,Calm,Calm,-,N/A,,Overcast,0,2012-10-08 08:39:00
5:00 AM,35.6,35.6,100,30.27,0.5,Calm,Calm,-,N/A,,Overcast,0,2012-10-08 09:00:00
5:21 AM,35.6,35.6,100,30.27,0.2,Calm,Calm,-,N/A,,Overcast,0,2012-10-08 09:21:00
5:43 AM,35.6,35.6,100,30.28,0.2,Calm,Calm,-,N/A,,Overcast,0,2012-10-08 09:43:00
6:04 AM,37.4,37.4,100,30.28,0.5,Calm,Calm,-,N/A,,Overcast,0,2012-10-08 10:04:00
6:25 AM,37.4,37.4,100,30.28,0.5,Calm,Calm,-,N/A,,Overcast,0,2012-10-08 10:25:00
6:46 AM,37.4,37.4,100,30.30,0.2,Calm,Calm,-,N/A,,Overcast,0,2012-10-08 10:46:00
7:08 AM,37.4,37.4,100,30.30,0.2,Calm,Calm,-,N/A,,Overcast,0,2012-10-08 11:08:00
7:29 AM,37.4,37.4,100,30.31,0.5,Calm,Calm,-,N/A,,Overcast,0,2012-10-08 11:29:00
7:50 AM,37.4,37.4,100,30.30,0.5,Calm,Calm,-,N/A,,Overcast,0,2012-10-08 11:50:00
8:11 AM,37.4,37.4,100,30.31,5.0,Calm,Calm,-,N/A,,Mostly Cloudy,0,2012-10-08 12:11:00
8:33 AM,37.4,37.4,100,30.31,10.0,Calm,Calm,-,N/A,,Scattered Clouds,0,2012-10-08 12:33:00
8:54 AM,37.4,37.4,100,30.31,10.0,Calm,Calm,-,N/A,,Clear,0,2012-10-08 12:54:00
9:15 AM,37.4,37.4,100,30.32,10.0,Calm,Calm,-,N/A,,Clear,0,2012-10-08 13:15:00
9:36 AM,39.2,39.2,100,30.32,10.0,Calm,Calm,-,N/A,,Clear,0,2012-10-08 13:36:00
9:58 AM,41.0,41.0,100,30.30,10.0,Calm,Calm,-,N/A,,Clear,0,2012-10-08 13:58:00
10:19 AM,41.0,41.0,100,30.32,10.0,Calm,Calm,-,N/A,,Clear,0,2012-10-08 14:19:00
10:40 AM,41.0,41.0,100,30.32,10.0,Calm,Calm,-,N/A,,Clear,0,2012-10-08 14:40:00
11:01 AM,42.8,42.8,100,30.32,10.0,Calm,Calm,-,N/A,,Clear,0,2012-10-08 15:01:00
11:23 AM,42.8,42.8,100,30.33,10.0,Calm,Calm,-,N/A,,Clear,0,2012-10-08 15:23:00
11:44 AM,44.6,42.8,93,30.33,10.0,Calm,Calm,-,N/A,,Clear,0,2012-10-08 15:44:00
12:05 PM,44.6,42.8,93,30.33,10.0,SE,3.5,-,N/A,,Clear,130,2012-10-08 16:05:00
12:26 PM,44.6,41.0,87,30.32,10.0,Calm,Calm,-,N/A,,Clear,0,2012-10-08 16:26:00
12:48 PM,44.6,41.0,87,30.32,10.0,SSE,4.6,-,N/A,,Clear,150,2012-10-08 16:48:00
1:09 PM,46.4,41.0,81,30.32,10.0,SSE,3.5,-,N/A,,Clear,160,2012-10-08 17:09:00
1:30 PM,46.4,41.0,81,30.32,10.0,South,5.8,-,N/A,,Mostly Cloudy,190,2012-10-08 17:30:00
1:52 PM,44.6,41.0,87,30.32,10.0,South,6.9,-,N/A,,Overcast,180,2012-10-08 17:52:00
2:13 PM,42.8,41.0,93,30.32,7.0,South,3.5,-,N/A,,Overcast,180,2012-10-08 18:13:00
2:34 PM,42.8,42.8,100,30.33,7.0,South,6.9,-,N/A,,Overcast,170,2012-10-08 18:34:00
2:55 PM,42.8,41.0,93,30.32,7.0,South,8.1,-,N/A,,Overcast,170,2012-10-08 18:55:00
3:17 PM,42.8,41.0,93,30.32,10.0,South,8.1,-,N/A,,Overcast,170,2012-10-08 19:17:00
3:38 PM,42.8,41.0,93,30.32,7.0,South,4.6,-,N/A,,Overcast,170,2012-10-08 19:38:00
3:59 PM,42.8,41.0,93,30.32,10.0,SSE,5.8,-,N/A,,Overcast,160,2012-10-08 19:59:00
4:20 PM,41.0,41.0,100,30.32,10.0,South,4.6,-,N/A,,Overcast,170,2012-10-08 20:20:00
4:42 PM,41.0,41.0,100,30.32,7.0,South,4.6,-,N/A,,Overcast,180,2012-10-08 20:42:00
5:03 PM,41.0,41.0,100,30.31,7.0,South,3.5,-,N/A,,Overcast,180,2012-10-08 21:03:00
5:24 PM,41.0,41.0,100,30.31,10.0,Calm,Calm,-,N/A,,Overcast,0,2012-10-08 21:24:00
5:45 PM,41.0,41.0,100,30.31,10.0,Calm,Calm,-,N/A,,Overcast,0,2012-10-08 21:45:00
6:07 PM,41.0,41.0,100,30.30,10.0,Calm,Calm,-,N/A,,Mostly Cloudy,0,2012-10-08 22:07:00
6:49 PM,41.0,41.0,100,30.29,10.0,Calm,Calm,-,N/A,,Mostly Cloudy,0,2012-10-08 22:49:00
7:10 PM,41.0,41.0,100,30.29,10.0,Calm,Calm,-,N/A,,Mostly Cloudy,0,2012-10-08 23:10:00
7:32 PM,41.0,41.0,100,30.28,10.0,Calm,Calm,-,N/A,,Mostly Cloudy,0,2012-10-08 23:32:00
7:53 PM,41.0,41.0,100,30.28,10.0,Calm,Calm,-,N/A,,Scattered Clouds,0,2012-10-08 23:53:00
8:14 PM,41.0,41.0,100,30.28,10.0,Calm,Calm,-,N/A,,Mostly Cloudy,0,2012-10-09 00:14:00
8:35 PM,41.0,41.0,100,30.28,10.0,Calm,Calm,-,N/A,,Mostly Cloudy,0,2012-10-09 00:35:00
8:57 PM,41.0,41.0,100,30.28,10.0,Calm,Calm,-,N/A,,Mostly Cloudy,0,2012-10-09 00:57:00
9:18 PM,41.0,41.0,100,30.28,10.0,Calm,Calm,-,N/A,,Overcast,0,2012-10-09 01:18:00
9:39 PM,41.0,41.0,100,30.29,10.0,Calm,Calm,-,N/A,,Overcast,0,2012-10-09 01:39:00
10:00 PM,41.0,41.0,100,30.29,10.0,Calm,Calm,-,N/A,,Overcast,0,2012-10-09 02:00:00
10:22 PM,41.0,41.0,100,30.29,10.0,Calm,Calm,-,N/A,,Mostly Cloudy,0,2012-10-09 02:22:00
10:43 PM,41.0,41.0,100,30.28,10.0,Calm,Calm,-,N/A,,Mostly Cloudy,0,2012-10-09 02:43:00
11:04 PM,41.0,41.0,100,30.29,7.0,Calm,Calm,-,N/A,,Overcast,0,2012-10-09 03:04:00
11:26 PM,41.0,41.0,100,30.28,10.0,Calm,Calm,-,N/A,,Overcast,0,2012-10-09 03:26:00
11:47 PM,41.0,41.0,100,30.28,5.0,Calm,Calm,-,N/A,,Overcast,0,2012-10-09 03:47:00